RH
11 10 9 8 7 7 7 7 8 8 9 9 10 10 9 10 12 15 17 19 19 19 19 19 18 18 17 17 17 15 14 14 13 12 12 11 10 9 8 8 9 10 11 11 12 12 13 14 16 17 19 21 24 29 36 44 51 57 62 64 65 65 65 66 67 68 67 64 62 60 59 57 54 50 46 43 42 42 42 43 44 45 45 45 45 45 44 43 42 42 42 43 46 49 51 51 52 53 52 49 46 43 40
7 7 7 6 6 6 7 8 8 9 10 9 9 9 9 10 12 14 17 18 19 19 18 17 16 16 16 16 16 16 15 14 13 12 12 11 10 8 7 7 7 8 9 10 10 11 12 12 13 15 17 18 20 23 29 36 44 51 58 62 64 65 65 64 65 67 69 67 65 63 62 61 58 56 52 48 44 42 42 43 44 45 46 46 45 44 44 43 42 42 42 42 45 49 52 49 49 51 53 51 48 45 42
5 5 5 5 5 5 6 7 8 10 11 10 9 8 9 11 13 15 16 17 17 17 16 15 15 15 15 15 15 15 15 14 13 12 10 9 8 7 7 6 6 6 7 7 8 9 10 11 12 13 14 16 17 19 23 29 36 43 51 57 61 64 65 64 64 65 67 68 68 66 64 63 62 60 57 54 50 47 44 43 44 45 47 47 46 45 44 43 42 42 42 42 44 46 50 48 48 49 51 52 49 46 43
4 3 3 4 4 4 4 5 7 8 9 9 8 8 8 11 13 15 16 15 14 13 12 13 13 13 13 13 14 14 13 13 12 11 9 8 7 6 6 6 6 6 6 6 7 7 8 9 10 11 12 13 15 17 19 23 29 35 42 50 56 61 63 63 63 63 64 67 68 68 67 66 64 63 60 58 56 53 50 46 44 44 46 47 47 46 45 43 42 42 42 43 43 44 48 48 47 48 51 51 49 46 42
3 3 3 3 3 3 3 4 4 5 5 6 6 7 7 10 14 16 15 12 10 9 9 9 10 10 11 12 12 12 12 12 11 10 7 6 6 6 6 6 7 6 6 6 6 6 7 8 8 9 10 11 12 14 16 19 24 29 34 42 49 55 60 62 62 62 62 63 65 67 69 68 67 65 63 61 60 58 55 51 48 46 46 47 47 48 46 44 43 42 42 43 44 45 47 48 47 48 51 51 49 45 40
3 3 3 3 3 3 3 3 3 3 4 4 4 5 6 9 13 15 12 10 8 7 6 6 7 8 9 10 10 10 10 10 9 8 6 6 6 6 6 7 7 7 6 6 6 6 6 7 7 8 9 10 11 12 13 16 19 23 29 34 41 48 54 59 61 62 62 61 62 64 67 69 69 68 66 64 63 62 60 56 53 50 49 49 49 49 47 46 44 42 41 43 45 47 49 48 48 49 50 50 47 43 40
4 4 4 4 3 3 3 3 3 3 3 3 3 4 4 6 8 10 9 8 7 6 5 5 5 5 6 7 7 8 8 8 7 6 5 5 6 6 6 6 6 6 7 7 6 6 6 6 7 7 8 9 9 10 11 13 16 19 23 28 34 41 48 54 59 61 62 61 60 60 63 66 68 69 69 67 66 64 62 59 56 54 52 54 54 52 48 47 46 43 41 41 45 48 52 50 49 49 49 46 44 42 40
4 4 4 4 4 3 3 3 3 3 3 3 3 3 4 4 5 5 5 5 5 4 4 4 4 4 4 5 5 6 6 7 6 6 6 6 6 6 6 6 6 6 6 6 6 6 6 6 6 7 7 8 9 9 10 11 13 16 19 24 29 35 41 47 53 58 61 61 60 60 61 63 65 67 69 69 69 68 65 61 59 56 54 54 54 54 52 51 49 46 42 41 43 48 53 52 50 50 51 47 43 40 40
4 4 4 4 4 4 4 4 4 3 3 3 3 3 3 4 4 4 4 4 3 3 3 3 3 4 4 4 4 4 5 5 5 6 6 6 6 6 6 6 6 6 6 6 6 6 6 6 6 6 7 7 8 9 9 10 11 13 16 21 26 31 36 41 46 52 57 59 60 60 61 62 64 66 68 70 71 70 68 64 61 58 56 54 54 55 55 54 53 50 45 42 43 46 51 53 52 52 54 51 46 42 40
4 4 4 4 4 4 4 4 4 4 4 4 3 3 3 3 3 3 3 3 3 3 3 3 3 3 3 3 3 3 3 4 5 5 6 6 7 7 7 6 6 6 6 6 6 6 6 6 6 6 6 7 7 8 9 9 10 11 14 19 24 29 33 36 40 46 52 56 58 60 60 61 62 65 68 70 72 72 71 68 64 61 58 55 54 55 56 56 55 54 51 45 43 44 47 51 53 54 55 55 51 45 41
4 4 4 4 4 4 4 4 4 4 4 4 4 4 4 4 4 3 3 3 3 3 3 3 3 3 3 3 3 3 3 3 4 4 5 6 6 7 7 7 6 6 6 6 5 6 6 6 6 6 6 6 7 7 8 9 9 10 11 16 22 28 32 33 36 40 45 51 55 58 59 59 60 62 65 68 71 72 73 71 68 64 60 58 56 55 56 56 57 56 54 49 46 44 45 49 52 54 55 56 53 48 42
4 4 4 4 4 4 4 4 4 4 4 4 4 4 4 4 4 4 4 3 3 3 3 3 3 3 3 3 3 3 3 3 3 4 4 5 6 6 7 7 7 7 6 6 6 6 6 6 6 6 6 6 6 7 7 8 9 9 10 13 19 25 31 32 34 36 40 46 51 55 57 58 58 59 61 65 69 72 74 73 70 67 63 60 58 56 56 56 57 57 56 53 49 46 45 48 51 54 55 56 53 49 45
5 5 5 5 5 5 5 5 5 4 4 4 4 4 4 4 4 4 4 4 3 3 3 3 3 3 3 3 3 3 3 3 3 3 3 4 5 5 6 7 7 7 7 7 6 6 6 6 6 6 6 6 6 7 7 8 8 9 10 11 16 22 30 32 33 34 37 41 46 51 55 56 57 57 57 60 65 70 74 74 72 70 66 63 60 58 57 57 57 58 58 57 53 49 47 48 50 53 55 55 53 51 48
5 5 5 5 5 5 5 5 5 5 5 5 5 5 5 5 5 5 4 4 4 3 3 3 3 3 3 4 3 3 3 3 3 3 3 3 4 4 5 6 7 7 7 7 7 6 6 6 6 6 6 6 6 6 7 7 8 9 9 10 13 19 26 31 33 34 35 38 42 47 51 54 55 56 55 56 60 65 71 74 74 73 70 67 64 61 58 57 57 58 60 60 57 53 49 48 49 51 54 54 53 51 50
6 5 6 5 5 5 5 5 5 5 5 5 5 5 5 5 5 5 5 4 4 4 4 4 4 4 4 4 4 4 4 4 4 4 4 3 3 4 4 5 6 7 7 8 7 7 7 6 6 6 6 6 6 6 6 7 7 8 9 10 12 15 22 29 32 33 34 35 39 43 48 51 54 55 54 53 55 59 67 72 75 75 73 71 68 64 60 58 56 57 59 61 60 58 53 49 49 50 52 53 52 50 49
6 6 6 6 6 6 6 6 6 6 6 6 6 6 6 6 6 6 5 5 5 4 4 4 4 5 5 5 5 5 5 4 4 4 4 4 4 4 4 4 5 6 7 7 7 8 7 7 6 6 6 6 6 6 6 7 7 8 9 10 11 13 17 25 30 33 33 34 36 40 44 48 52 54 55 53 53 55 61 69 74 76 75 74 72 69 64 60 57 56 58 62 62 61 57 52 49 49 51 53 53 51 48
7 7 7 6 6 6 6 6 6 6 6 6 6 6 6 6 6 6 6 6 6 5 5 5 5 5 5 5 5 5 5 5 5 5 5 5 4 4 4 4 4 5 6 6 7 8 8 7 7 7 6 6 6 6 6 7 7 8 9 10 11 12 14 20 27 32 33 33 35 37 40 45 49 53 55 54 53 53 56 65 71 76 77 76 74 72 69 64 61 58 58 62 63 63 60 56 51 49 49 52 53 52 49
7 7 7 7 7 7 7 7 7 7 7 7 7 7 7 7 7 7 7 7 6 6 6 6 6 6 6 6 6 6 6 5 5 5 5 5 5 5 5 4 4 4 5 6 6 7 8 8 8 7 7 6 6 6 6 6 7 7 8 9 10 11 13 16 22 28 33 33 34 35 38 42 47 51 54 54 53 52 52 58 66 73 77 77 76 75 73 69 65 62 60 62 64 64 63 59 55 52 49 51 52 53 50
7 7 7 7 7 7 7 7 7 7 7 7 7 7 7 7 7 7 7 7 7 7 7 6 7 6 6 6 6 6 6 6 6 6 6 6 5 5 5 5 5 5 5 5 6 6 7 8 8 8 7 7 6 6 6 6 6 7 8 9 10 11 12 15 19 24 30 33 34 34 36 39 44 48 52 54 54 52 50 53 60 68 75 77 78 77 76 73 69 65 62 63 64 65 65 63 60 56 52 50 51 52 51
7 7 7 7 7 7 7 7 7 7 7 7 7 7 7 7 7 7 7 7 7 7 7 7 7 7 7 7 6 6 6 6 6 6 6 6 6 6 6 6 5 5 5 5 5 6 6 7 8 8 8 8 7 7 6 6 6 7 8 9 10 11 12 14 16 20 25 31 34 34 35 37 41 45 50 52 53 53 50 50 54 61 69 75 78 79 78 76 73 69 66 64 65 66 66 65 64 61 57 53 51 50 50
7 7 7 7 7 7 7 7 7 7 7 7 7 7 7 7 7 7 7 7 7 7 7 7 7 7 7 7 6 6 6 6 6 6 6 6 6 6 6 6 6 5 5 5 5 5 6 6 7 8 8 8 8 7 7 7 7 7 7 8 10 11 12 13 15 17 21 28 32 35 35 36 38 42 46 50 52 53 52 49 51 55 62 70 75 79 79 78 76 73 69 66 65 66 66 67 66 65 62 58 53 50 48
7 7 7 7 8 8 8 8 8 8 8 8 8 7 7 7 7 7 7 7 7 7 7 7 7 7 6 6 6 6 6 6 6 6 6 6 6 6 6 6 6 6 6 5 5 5 5 6 6 7 8 8 8 8 8 7 7 7 7 8 9 11 12 13 15 16 19 24 30 34 35 35 36 39 43 47 50 52 53 51 49 50 55 63 70 76 80 80 78 75 71 68 66 66 67 67 67 67 66 63 58 53 48
8 8 8 8 8 8 8 8 8 8 8 8 8 7 7 7 7 7 7 7 7 7 7 6 6 6 6 6 6 6 6 6 6 6 6 6 6 6 6 6 6 6 6 6 6 5 5 6 6 6 7 8 8 9 8 8 7 7 7 8 9 10 12 13 15 16 19 22 27 32 35 35 36 37 40 44 48 51 53 52 50 49 49 56 64 71 78 80 79 77 74 70 68 67 67 67 67 67 67 66 63 58 52
8 8 8 8 8 8 8 8 8 8 8 8 7 7 7 7 7 7 7 7 6 6 6 6 6 6 6 6 6 6 6 6 6 6 6 6 6 6 6 6 6 6 6 6 5 5 5 5 5 6 6 7 8 8 9 8 8 8 7 7 8 9 11 13 15 16 18 21 25 29 33 35 36 36 38 41 45 49 52 53 52 49 47 50 57 65 72 77 79 79 77 73 70 68 68 68 68 68 68 68 67 63 59
9 9 9 9 9 8 8 8 8 8 8 8 7 7 7 7 7 7 6 6 6 6 6 6 6 6 6 6 6 6 6 6 6 6 6 5 5 5 5 6 5 5 5 5 5 5 5 5 5 5 5 6 7 8 8 9 9 8 8 8 8 9 10 12 14 16 18 21 23 27 31 35 36 37 37 38 42 46 50 52 53 51 48 48 51 57 65 72 77 79 79 76 72 70 69 70 69 69 68 69 69 67 64
9 9 9 9 9 8 8 8 8 8 7 7 7 7 7 6 6 6 6 6 6 6 6 5 5 6 6 5 6 6 6 6 6 6 5 5 5 5 5 5 5 5 5 5 5 5 5 5 5 5 5 5 6 7 8 8 9 9 9 8 8 8 9 11 13 16 18 20 23 26 30 34 36 37 37 37 39 42 47 50 53 53 51 48 48 51 58 66 73 77 79 78 75 72 70 71 71 70 69 69 69 69 68
9 9 9 9 9 9 8 8 8 8 7 7 7 7 6 6 6 6 6 6 5 5 5 5 5 5 5 5 5 5 5 5 5 5 5 5 5 5 5 5 5 5 5 5 5 5 5 5 5 5 5 5 5 6 6 8 8 9 9 9 8 8 9 10 12 15 17 19 22 25 29 33 36 38 38 37 38 40 44 48 52 53 53 50 48 48 51 59 67 74 78 79 77 75 72 71 71 70 69 68 69 70 70
10 9 9 9 9 8 8 8 8 8 7 7 7 7 6 6 6 6 6 5 5 5 5 5 5 5 5 5 5 5 5 5 5 5 5 5 5 5 5 4 5 5 5 5 5 5 5 4 4 4 4 4 5 5 5 6 7 9 9 9 9 9 9 10 11 14 16 18 21 24 28 31 35 37 39 38 38 38 41 45 49 53 54 52 48 46 47 53 60 68 75 79 79 77 74 73 73 72 72 70 70 71 71
9 9 9 9 8 8 8 7 7 7 7 7 7 6 6 6 6 6 6 5 5 5 5 5 5 5 5 4 4 4 4 5 4 4 4 4 5 4 4 4 4 4 5 5 5 5 5 4 4 4 4 4 4 4 5 5 6 7 9 9 9 9 9 9 10 12 15 18 20 22 25 30 34 37 39 39 38 38 39 43 47 51 54 53 50 47 45 48 54 63 71 77 79 79 76 75 74 74 74 73 73 73 73
9 9 9 9 8 8 8 7 7 7 7 7 7 7 6 6 6 6 6 5 5 5 5 5 5 4 4 4 4 4 4 4 4 4 4 4 4 4 4 4 4 4 4 5 5 5 4 4 4 4 4 4 4 4 4 5 5 6 8 9 9 10 10 10 10 11 14 17 19 21 23 27 31 35 38 39 39 39 38 41 44 48 52 53 51 49 45 46 50 58 67 74 79 80 78 76 76 75 76 76 75 75 75
9 9 8 8 8 8 7 7 7 7 7 7 7 7 6 6 6 6 6 6 5 5 5 5 5 4 4 4 4 4 4 4 4 4 4 4 4 4 4 4 4 4 4 4 5 5 5 4 4 4 4 4 4 4 4 4 4 5 6 8 9 10 10 10 10 11 12 15 18 21 22 25 28 32 35 38 39 39 38 39 41 45 49 52 53 52 48 46 48 53 61 70 77 80 80 78 76 76 76 77 77 77 77
9 8 8 8 8 7 8 7 7 7 7 7 7 7 7 6 6 6 6 6 6 6 5 5 5 5 4 4 4 4 4 4 4 4 4 4 4 4 4 4 4 4 5 5 5 4 4 4 4 4 4 4 4 4 4 4 4 4 5 7 8 9 10 10 11 11 11 14 17 20 23 24 27 31 34 37 39 40 39 39 40 43 47 51 54 54 51 48 47 50 56 65 74 79 81 80 78 76 77 77 78 78 78
9 8 8 8 8 7 8 7 7 7 8 7 7 7 7 6 6 6 6 6 6 6 6 6 5 5 5 5 4 4 4 4 4 4 4 4 4 4 5 5 5 5 5 4 4 4 4 4 4 4 3 3 3 4 4 4 4 4 5 6 7 8 9 10 11 12 12 13 15 19 22 24 26 29 32 35 37 39 40 39 39 41 44 49 53 54 54 50 48 49 52 60 69 76 81 81 79 77 76 77 78 79 80
8 8 8 8 8 8 8 8 8 8 8 8 7 7 7 7 7 7 7 7 6 6 6 6 6 6 5 5 5 5 5 5 5 4 4 4 5 5 6 5 5 5 4 4 4 4 4 4 4 4 4 4 4 3 4 4 4 4 4 5 6 7 9 10 11 12 12 12 14 17 21 23 25 27 30 33 35 38 40 39 39 39 42 47 51 54 55 52 49 48 49 55 63 72 79 81 81 79 77 77 78 80 82
9 9 9 9 8 8 8 8 8 8 8 8 8 8 8 8 7 7 7 7 7 7 7 6 6 6 6 6 5 5 5 5 5 5 5 5 6 7 7 6 6 5 4 4 3 3 4 3 4 4 3 3 3 4 4 4 4 4 5 5 6 7 8 9 11 12 13 13 13 15 18 22 24 26 27 29 32 35 38 39 39 39 40 44 49 53 56 54 51 49 48 52 59 67 75 80 81 80 78 77 77 80 84
10 10 9 9 9 9 9 9 9 9 9 8 8 8 8 8 8 8 8 7 7 7 7 7 6 6 6 6 6 6 5 5 6 6 7 7 8 8 7 7 6 5 4 4 4 4 3 3 3 4 4 4 4 4 4 4 4 5 5 5 6 7 7 9 10 12 13 14 14 15 17 20 23 25 25 27 29 32 35 37 38 39 40 43 47 52 56 56 53 50 47 50 55 62 71 77 80 81 79 78 77 79 82
11 11 10 10 10 10 10 10 10 10 9 9 9 9 9 9 9 8 8 8 8 7 7 7 7 6 6 6 6 6 6 6 6 7 9 9 9 9 8 7 6 5 4 4 4 3 3 3 3 4 4 4 4 4 4 5 5 6 6 7 7 7 8 9 10 12 13 14 14 15 15 18 22 24 25 26 27 29 31 34 36 38 39 42 46 50 55 56 55 52 49 48 52 58 66 73 78 81 80 79 78 78 80
12 12 12 11 11 11 11 11 11 10 10 10 10 10 10 9 9 9 9 8 8 8 8 7 7 7 7 7 7 7 7 7 9 10 11 11 10 9 8 7 6 5 5 4 4 4 3 3 3 4 4 5 5 5 5 5 6 7 8 8 9 9 10 10 11 12 14 15 15 15 15 17 20 23 26 26 26 27 29 32 34 37 38 40 44 48 54 56 56 54 51 49 50 54 61 68 74 79 80 79 78 78 79
13 13 13 12 12 12 12 12 12 11 11 11 11 11 11 10 10 9 9 9 9 8 8 8 8 8 8 8 8 9 9 10 12 13 13 12 10 9 7 6 6 5 5 4 4 4 3 3 4 4 4 5 6 6 6 7 8 9 10 10 10 11 12 12 12 13 14 15 15 15 15 16 19 22 25 26 27 27 29 32 35 37 37 38 41 46 51 55 57 56 53 50 49 51 56 63 70 76 79 79 79 78 79
14 14 14 13 13 13 13 13 13 13 12 12 12 12 11 11 10 10 10 9 9 9 9 9 9 10 10 10 11 12 13 13 14 14 13 12 10 8 7 6 5 5 5 4 4 4 3 4 4 4 5 6 7 7 8 9 10 11 12 12 12 12 13 14 14 14 15 15 16 16 16 16 17 20 24 26 27 27 28 33 36 38 38 37 39 43 48 53 56 57 55 51 49 50 53 59 65 72 77 78 79 78 78
16 15 15 15 14 14 14 14 14 14 14 13 13 13 12 11 11 11 11 10 10 10 10 10 11 12 13 14 15 16 17 16 15 14 12 10 9 8 6 6 5 5 4 4 4 4 3 4 4 5 6 7 8 9 10 11 12 13 13 13 13 13 14 14 15 15 15 16 16 17 17 16 17 19 23 26 27 28 28 32 36 38 38 37 37 40 45 50 54 57 56 53 50 49 50 56 62 67 73 76 78 79 78
17 17 16 16 16 15 15 15 15 15 15 14 14 14 13 12 12 12 11 11 11 11 11 12 13 14 16 18 19 20 19 17 16 14 11 9 8 7 6 6 5 5 5 4 4 4 4 4 5 6 7 8 9 10 13 14 14 14 14 14 14 14 14 14 15 15 16 16 16 17 17 17 17 19 21 25 28 28 28 30 34 38 39 38 38 40 43 48 52 55 57 55 52 50 50 54 59 64 69 73 76 78 79
18 18 18 17 17 17 17 16 16 16 16 15 15 15 14 14 13 13 13 12 12 12 12 13 15 17 20 21 22 21 20 18 15 13 11 10 8 7 6 6 6 5 5 5 4 4 5 5 6 8 9 9 11 13 15 15 15 15 14 14 14 14 13 14 14 15 15 16 16 17 17 18 18 18 20 24 27 29 29 29 32 35 38 39 40 42 44 47 50 54 57 56 54 52 51 53 57 61 65 70 74 77 79
20 20 19 19 18 18 18 18 17 17 17 17 16 16 15 15 15 14 14 14 13 14 14 15 18 21 24 24 23 22 20 17 15 13 11 10 9 8 7 6 6 6 5 5 5 5 6 7 8 9 10 11 13 15 16 16 15 15 14 14 14 14 14 14 14 15 15 16 16 17 17 18 18 18 19 22 26 29 30 30 31 33 36 38 41 43 45 46 49 52 56 57 56 55 53 54 56 59 62 67 71 75 79
21 21 21 20 20 20 19 19 19 19 19 18 18 17 16 16 16 15 15 15 15 15 17 18 21 24 26 25 24 21 19 17 16 14 13 12 10 9 8 8 7 7 7 6 6 7 7 8 9 10 11 13 16 17 17 16 15 14 14 14 14 15 14 14 14 15 15 15 16 16 17 18 18 18 19 21 25 29 31 31 31 33 36 39 42 45 46 47 48 51 56 58 58 56 55 54 55 56 59 63 68 73 77
21 21 22 21 21 21 21 21 21 21 21 20 20 19 18 18 17 17 16 16 16 17 19 22 24 26 26 26 24 22 19 18 17 16 15 13 12 11 10 9 9 9 9 8 7 8 8 10 11 12 13 15 17 18 18 16 15 14 14 14 15 15 14 14 13 14 14 15 15 16 16 17 18 19 19 21 24 28 32 33 33 34 36 40 44 46 47 47 48 51 56 58 58 58 56 55 54 55 57 61 65 70 75
21 22 22 22 23 23 23 23 23 23 23 23 22 21 21 20 19 19 18 18 19 20 22 25 27 27 27 26 24 22 21 20 19 18 16 15 14 14 13 12 11 10 9 9 8 9 10 12 13 14 16 17 18 18 17 16 14 14 14 15 15 14 14 13 13 13 13 14 15 15 16 17 18 19 20 22 24 28 32 34 35 35 36 41 45 48 48 47 48 51 56 58 59 59 58 57 56 55 56 58 62 67 72
21 22 22 23 23 24 25 25 26 26 26 26 25 25 24 23 22 21 21 21 22 23 25 27 28 28 27 26 25 24 24 23 22 21 20 18 16 16 15 14 12 11 10 10 10 11 13 15 16 16 17 18 18 18 16 15 14 14 15 15 15 14 14 13 13 13 13 13 14 15 16 17 18 20 21 23 25 29 32 36 37 37 37 41 46 50 51 50 50 52 56 58 59 59 58 58 57 56 56 57 61 64 68
20 21 21 22 23 24 25 26 27 28 28 28 28 28 27 26 25 24 24 24 24 26 27 27 28 28 28 27 27 26 26 25 24 23 22 22 21 18 16 15 14 13 12 13 13 14 16 17 17 18 18 19 18 17 15 14 14 14 15 15 15 14 13 13 12 12 12 13 13 14 15 17 18 20 22 24 26 28 32 36 38 39 38 41 47 52 54 53 53 54 55 56 56 57 58 58 58 57 56 57 59 62 65
18 19 20 21 22 23 24 26 27 28 29 29 30 29 29 28 27 27 27 27 27 27 28 28 28 28 28 28 28 28 28 27 26 25 25 25 25 24 21 20 18 17 16 16 16 17 17 18 18 19 19 19 18 16 13 13 14 15 16 16 16 15 14 13 12 12 12 12 13 14 15 16 18 20 23 25 27 29 31 35 39 41 40 42 47 54 57 56 56 55 54 53 53 53 55 57 57 57 55 56 58 60 63
17 18 18 19 20 21 22 24 25 27 28 28 29 29 29 29 30 30 30 30 30 30 29 29 28 28 29 29 29 29 29 29 28 27 27 27 27 27 26 25 24 22 20 18 17 17 18 19 20 20 19 18 15 14 12 13 15 17 19 19 18 16 14 12 12 11 11 11 12 14 15 16 18 20 22 24 26 28 31 35 39 42 43 44 48 54 59 58 57 56 55 51 50 50 52 54 55 56 55 55 57 59 62
16 17 17 18 19 20 21 22 23 24 25 26 27 27 28 30 31 32 33 33 33 32 31 31 30 29 29 29 30 30 30 30 29 29 29 28 28 27 27 27 26 24 22 21 20 19 19 20 20 20 19 16 14 13 14 15 18 21 22 21 19 16 14 12 12 11 11 11 12 13 15 16 18 20 22 23 25 27 30 34 38 42 45 46 49 55 60 59 58 56 56 53 50 49 50 51 53 54 55 55 56 58 61
16 17 17 18 18 19 20 20 21 22 23 25 25 27 28 30 32 34 34 35 35 35 34 33 32 31 31 30 30 30 31 30 30 30 29 29 29 28 28 27 26 25 25 23 21 20 18 19 19 20 18 17 16 17 17 19 21 22 23 21 19 16 13 12 12 12 12 12 12 13 14 16 17 19 22 23 25 27 28 31 36 41 45 47 50 55 60 60 59 57 57 55 52 49 48 49 51 53 55 55 56 58 61
17 18 18 19 20 20 21 21 22 23 24 25 27 28 29 31 32 33 34 35 36 36 36 35 34 33 32 32 31 31 31 31 31 31 30 30 30 29 28 28 27 27 27 25 22 19 18 19 20 21 19 19 19 20 20 21 22 23 22 20 18 16 13 13 13 13 13 14 13 13 14 15 17 19 21 23 25 27 28 30 34 39 44 46 50 54 58 59 58 58 58 57 53 49 47 48 51 53 56 57 58 58 60
18 19 20 21 22 23 23 24 25 26 27 28 30 31 32 33 33 33 34 35 36 36 37 36 36 35 34 34 33 33 33 32 32 32 32 31 30 29 29 29 29 28 26 24 22 21 20 22 23 23 21 20 21 21 20 22 23 23 23 20 17 15 14 14 14 15 15 15 15 15 15 16 17 19 20 22 24 25 26 28 32 36 41 45 49 52 55 58 59 59 59 58 54 50 46 48 50 54 57 58 59 59 60
20 21 22 23 25 26 27 28 30 31 32 33 34 35 35 35 35 35 35 35 36 36 37 37 37 37 36 35 34 34 33 34 33 33 33 32 31 30 30 29 29 28 26 25 24 24 24 25 25 24 22 22 21 21 21 23 23 23 22 19 17 15 15 15 15 16 16 17 16 16 16 17 17 19 20 22 24 25 26 28 31 35 39 43 47 50 53 55 58 60 60 58 54 51 47 48 50 53 56 58 60 61 61
22 24 25 26 28 29 31 32 33 34 35 36 37 38 38 38 37 37 36 36 36 37 37 38 38 38 37 37 36 35 35 34 34 34 34 33 32 32 31 30 29 29 29 28 27 27 27 26 25 24 22 22 22 22 22 23 23 23 21 19 17 17 16 16 16 16 17 18 17 17 16 17 17 18 20 22 24 25 25 26 29 33 37 41 45 48 51 53 56 59 61 59 56 53 50 50 51 52 54 58 61 63 63
25 26 28 29 31 32 34 35 36 36 37 38 39 39 39 39 39 39 38 38 38 38 38 38 38 39 38 38 37 37 36 35 35 35 35 34 34 33 32 31 31 30 30 29 29 29 29 28 26 25 24 24 23 22 23 23 23 22 21 19 19 19 19 17 17 17 18 18 18 17 16 16 17 18 19 22 23 24 23 25 27 31 35 39 43 46 49 52 55 58 61 59 58 56 53 52 52 53 53 56 59 62 63
28 29 31 32 34 35 36 37 37 38 38 39 39 39 39 40 40 40 40 39 38 38 38 38 39 39 38 38 38 38 37 36 36 36 36 36 35 34 33 32 32 31 31 31 30 30 29 29 27 26 26 25 24 24 23 23 23 23 22 21 21 21 21 19 18 18 19 19 19 18 16 16 16 18 20 21 22 23 23 24 26 29 33 37 41 44 47 49 53 56 59 60 60 58 56 55 54 54 54 55 58 60 61
30 32 34 35 36 37 37 37 38 38 39 39 40 40 40 40 40 40 40 39 38 38 38 38 39 39 38 38 38 39 39 38 38 38 37 37 36 35 34 34 33 32 32 31 31 31 31 29 28 27 26 26 25 25 25 24 23 23 22 23 23 22 22 21 20 20 21 21 19 18 16 16 17 18 20 21 23 24 24 25 26 28 31 36 40 43 46 48 52 56 59 61 61 60 59 58 58 57 56 55 56 58 60
32 34 36 36 36 36 36 37 38 39 40 41 42 43 43 43 42 41 40 39 38 37 37 38 38 38 38 37 38 38 39 40 40 39 39 38 37 36 36 35 34 34 33 33 32 32 32 31 30 28 27 27 27 26 25 24 23 23 23 23 23 23 23 22 22 22 23 22 21 19 17 17 18 19 21 23 24 25 26 26 27 28 30 34 38 43 48 49 52 54 58 60 61 61 61 61 61 61 60 58 58 59 59